This is the latest recevied weather packets stored in our database for station/object DC7RY. If no packets are shown the sender has not sent any weather packets the latest 10 day(s).
| Time | Temp. | Humidity | Pressure | Rain* | Wind** | Luminosity | Snow |
|---|---|---|---|---|---|---|---|
| 1777212627 | 16.11° C | 39% | 1016.4 hPa | 0 mm | - | 190 W/m² | - |
| 1777212018 | 16.11° C | 39% | 1016.4 hPa | 0 mm | - | 243 W/m² | - |
| 1777211427 | 16.11° C | 36% | 1016.5 hPa | 0 mm | - | 333 W/m² | - |
| 1777210819 | 16.11° C | 38% | 1016.7 hPa | 0 mm | - | 283 W/m² | - |
| 1777210227 | 16.11° C | 38% | 1016.6 hPa | 0 mm | - | 316 W/m² | - |
| 1777209619 | 15.56° C | 37% | 1016.7 hPa | 0 mm | - | 312 W/m² | - |
| 1777209026 | 15° C | 38% | 1016.6 hPa | 0 mm | - | 295 W/m² | - |
| 1777208419 | 14.44° C | 39% | 1016.6 hPa | 0 mm | - | 229 W/m² | - |
| 1777207827 | 14.44° C | 41% | 1016.8 hPa | 0 mm | - | 158 W/m² | - |
| 1777207219 | 14.44° C | 41% | 1017 hPa | 0 mm | - | 185 W/m² | - |
| 1777206626 | 13.89° C | 41% | 1016.9 hPa | 0 mm | - | 163 W/m² | - |
| 1777206019 | 13.89° C | 41% | 1017.1 hPa | 0 mm | - | 190 W/m² | - |
| 1777205426 | 13.33° C | 45% | 1017.3 hPa | 0 mm | - | 130 W/m² | - |
| 1777204818 | 13.33° C | 44% | 1017.1 hPa | 0 mm | - | 113 W/m² | - |
| 1777204226 | 13.33° C | 42% | 1017.2 hPa | 0 mm | - | 124 W/m² | - |
| 1777203618 | 13.33° C | 44% | 1017.4 hPa | 0 mm | - | 105 W/m² | - |
| 1777203027 | 13.33° C | 45% | 1017.4 hPa | 0 mm | - | 110 W/m² | - |
| 1777202418 | 13.33° C | 45% | 1017.5 hPa | 0 mm | - | 115 W/m² | - |
| 1777201826 | 12.78° C | 44% | 1017.5 hPa | 0 mm | - | 146 W/m² | - |
| 1777201218 | 12.22° C | 45% | 1017.7 hPa | 0 mm | - | 360 W/m² | - |
| 1777200626 | 12.22° C | 46% | 1017.8 hPa | 0 mm | - | 363 W/m² | - |
| 1777200018 | 11.67° C | 48% | 1017.8 hPa | 0 mm | - | 359 W/m² | - |
| 1777199426 | 11.11° C | 48% | 1017.5 hPa | 0 mm | - | 349 W/m² | - |
| 1777198818 | 10.56° C | 52% | 1017.7 hPa | 0 mm | - | 341 W/m² | - |
| 1777198226 | 10.56° C | 52% | 1017.7 hPa | 0 mm | - | 230 W/m² | - |
* Rain latest hour (hover to see other rain measurements)
** Current wind speed in m/s (hover to see current wind gust speed)